x

Matinicus Rock, Me (mism1) Weather Station

12:00 - Wed 23rd Aug 2017 All times are EDT. -4 hours from GMT.

  • Wind
    24mph, 25mph gusts
  • Luft Temp 63°f
  • Sea Pressure 1005mb
  • Matinicus Rock, Me
  • Matinicus Rock, Me

More Historic Weather Station data

Upgrade to MSW Pro to gain access to the past 30 days of data for over 8000 Wavebouys and Weather Stations around the globe.

Join

Comparision Forecast

View Surf forecast
   
Mi 08/23 12:00 24 25 mph 1005mb 63f
11:00 23 24 mph 1004.8mb 63f
10:00 24 25 mph 1004.7mb 63f
9:00 26 28 mph 1004.6mb 64f
8:00 25 26 mph 1004.2mb 63f
7:00 26 28 mph 1003.9mb 64f
6:00 28 29 mph 1003.4mb 64f
5:00 24 26 mph 1003.2mb 63f
4:00 25 26 mph 1003.6mb 63f
3:00 29 30 mph 1004.4mb 64f
2:00 28 29 mph 1004.8mb 64f
1:00 31 33 mph 1004.4mb 65f
12:00 31 32 mph 1004.8mb 65f
Di 08/22 11:00 31 33 mph 1004.8mb 65f
10:00 34 38 mph 1005.5mb 66f
9:00 28 30 mph 1006.5mb 65f
8:00 28 29 mph 1006.7mb 65f
7:00 24 24 mph 1007.6mb 65f
6:00 25 25 mph 1008mb 65f
5:00 25 26 mph 1008.7mb 65f
4:00 22 22 mph 1009.6mb 65f
3:00 18 18 mph 1011mb 65f
2:00 21 22 mph 1012mb 65f
1:00 18 18 mph 1012.7mb 65f
12:00 17 17 mph 1013.3mb 65f
11:00 18 18 mph 1014mb 65f
10:00 21 21 mph 1014.4mb 65f
9:00 14 15 mph 1014.8mb 65f
8:00 15 15 mph 1015.2mb 63f
7:00 13 14 mph 1015.3mb 64f
6:00 13 14 mph 1015mb 62f
5:00 17 17 mph 1015mb 63f
4:00 20 20 mph 1014.8mb 64f
3:00 13 14 mph 1015.7mb 63f
2:00 16 17 mph 1016.1mb 64f
1:00 22 22 mph 1016.1mb 67f
12:00 20 20 mph 1015.9mb 66f
Mo 08/21 11:00 21 23 mph 1016.2mb 66f
10:00 22 22 mph 1016.3mb 65f
9:00 22 23 mph 1016.6mb 65f
8:00 21 22 mph 1016.5mb 65f
7:00 25 25 mph 1016.5mb 67f
6:00 23 23 mph 1016.5mb 66f
5:00 20 21 mph 1016.8mb 65f
4:00 14 15 mph 1017.1mb 63f
3:00 16 17 mph 1017.5mb 63f
2:00 20 20 mph 1018.1mb 65f
1:00 21 22 mph 1018.6mb 63f
12:00 16 16 mph 1018.7mb 64f
11:00 15 16 mph 1018.8mb 67f
10:00 11 13 mph 1019.1mb 65f
9:00 10 10 mph 1019.3mb 64f
8:00 14 14 mph 1019.6mb 63f
7:00 14 15 mph 1019.4mb 62f
6:00 13 13 mph 1018.8mb 62f
5:00 15 15 mph 1018.1mb 61f
4:00 13 14 mph 1017.9mb 62f
3:00 14 15 mph 1017.7mb 61f
2:00 14 15 mph 1017.7mb 64f
1:00 16 16 mph 1017.4mb 65f
12:00 21 21 mph 1016.9mb 67f
So 08/20 11:00 18 20 mph 1016.4mb 67f
10:00 17 18 mph 1016.1mb 67f
9:00 22 22 mph 1015.5mb 69f
8:00 20 21 mph 1014.5mb 69f
7:00 18 18 mph 1014.1mb 70f
6:00 16 16 mph 1013.5mb 68f
5:00 17 18 mph 1013mb 69f
4:00 16 17 mph 1012.8mb 65f
3:00 17 18 mph 1012.5mb 65f
2:00 15 15 mph 1012.4mb 65f
1:00 15 16 mph 1012.2mb 63f
12:00 13 13 mph 1011.9mb 65f
11:00 10 11 mph 1011.9mb 61f
10:00 14 14 mph 1011.7mb 59f
9:00 9 9 mph 1011.4mb 59f
8:00 6 6 mph 1011mb 61f
7:00 8 8 mph 1010.5mb 60f
6:00 14 14 mph 1010mb 60f
5:00 15 16 mph 1009.4mb 59f
4:00 13 14 mph 1008.9mb 62f
3:00 11 11 mph 1008.8mb 63f
2:00 10 11 mph 1009.1mb 63f
1:00 9 9 mph 1009.5mb 61f
12:00 11 11 mph 1009.7mb 60f
Sa 08/19 11:00 8 8 mph 1009.6mb 60f
10:00 7 8 mph 1009.6mb 61f
9:00 14 14 mph 1009.5mb 61f
8:00 9 9 mph 1009mb 62f
7:00 8 9 mph 1008.5mb 61f
6:00 9 9 mph 1008.1mb 62f